Flag for India Weather past 2 weeks in Bhabua, Bihar, India

Now
91 °F

Scattered clouds.


Feels Like: 111 °F
Forecast: 78 / 98 °F
Wind: 5 mph from Northwest

Location: Varanasi / Babatpur

Current Time: Aug 21, 2014 at 12:05:57 PM

Latest Report: Aug 21, 2014 at 11:00 AM


Visibility: 3 mi

Pressure: 29.65 "Hg

Humidity: 71%

Dew point: 81 °F

Location of BhabuaLocation

Historic Weather in Bhabua — Graph

°F

Bhabua temperature yesterday

Maximum temperature yesterday: 93 °F (at 1:00 PM)
Minimum temperature yesterday: 79 °F (at 10:00 PM)
Average temperature yesterday: 88 °F

Past Weeks' High & Low Weather Summary

 TemperatureHumidityPressure
High95 °F (Aug 9, 3:00 PM)100% (Aug 10, 7:00 AM)29.77 "Hg (Aug 10, 7:00 AM)
Low79 °F (Aug 10, 7:00 AM)56% (Aug 7, 3:00 PM)29.45 "Hg (Aug 6, 6:00 PM)
Average86 °F80%29.60 "Hg
* Reported Aug 6 6:00 PM — Aug 21 10:00 AM, Bhabua, Weather by CustomWeather, © 2014

Note: Actual official high and low records may vary slightly from our data, if they occured in-between our weather recording intervals... More about our weather records

Advertising

Bhabua weather history for previous 24 hours

 ConditionsComfort  
Time TempWeatherWind HumidityBarometerVisibility
10:00 AM
Aug 21
90 °FScattered clouds.6 mph71%29.65 "Hg3 mi
9:00 AM86 °FScattered clouds.3 mph84%29.65 "Hg3 mi
8:00 AM86 °FScattered clouds.2 mph79%29.62 "Hg3 mi
6:00 AM81 °FPassing clouds.8 mph94%29.62 "Hg3 mi
5:00 AM81 °FPassing clouds.No wind89%29.59 "Hg3 mi
4:00 AM79 °FPassing clouds.No wind94%29.59 "Hg3 mi
12:00 AM79 °FPassing clouds.2 mph94%29.62 "Hg3 mi
11:00 PM
Aug 20
79 °FPassing clouds.1 mph94%29.65 "Hg3 mi
10:00 PM79 °FPassing clouds.6 mph94%29.68 "Hg3 mi
9:00 PM81 °FPassing clouds.3 mph84%29.68 "Hg3 mi
8:00 PM82 °FLight rain. Passing clouds.9 mph79%29.65 "Hg3 mi
7:00 PM91 °FPassing clouds.No wind71%29.65 "Hg3 mi
6:00 PM93 °FScattered clouds.1 mph67%29.62 "Hg3 mi
5:00 PM93 °FScattered clouds.2 mph63%29.62 "Hg4 mi
4:00 PM91 °FScattered clouds.6 mph67%29.62 "Hg4 mi
3:00 PM91 °FScattered clouds.6 mph67%29.65 "Hg4 mi
2:00 PM93 °FScattered clouds.6 mph67%29.65 "Hg4 mi
1:00 PM93 °FHaze.5 mph67%29.68 "Hg3 mi
Weather by CustomWeather, © 2014

See weather overviewHow to use our weather pages